#timestamp,LO_Frequency,Hit,StdDev 
1636408815.2,286047004.4,P
1636408835.1,286047005.6,Y
1636408836.0,286047005.6,P
1636408855.8,286047002.9,N
1636408875.7,286047006.2,P
1636408895.5,286047005.7,Y
1636408915.3,286046998.1,P
1636408935.2,286046996.8,N
1636408955.0,286046994.9,N
1636408955.9,286046994.9,N
1636408975.7,286046997.7,N
1636408995.6,286046995.4,N
1636409015.4,286046995.8,N
1636409035.3,286046994.2,N
1636409055.1,286046994.4,N
1636409056.0,286046994.4,N
1636409075.8,286046991.8,N
1636409095.7,286046992.7,N
1636409115.5,286046992.5,N
1636409135.3,286046991.9,N
1636409155.2,286046992.3,N
1636409175.0,286046992.1,N
1636409175.9,286046992.1,N
1636409195.8,286046992.2,N
1636409215.6,286046992.1,N
1636409235.4,286046994.8,N
1636409255.3,286046991.7,N
1636409275.1,286046992.9,N
1636409295.8,286046994.2,N
1636409315.7,286046992.6,N
1636409335.5,286046992.8,N
1636409355.4,286046993.2,N
1636409375.2,286046992.4,N
1636409395.0,286046994.1,N
1636409395.9,286046994.1,N
1636409415.8,286046992.0,Y
1636409435.6,286046998.3,P
1636409455.4,286046999.1,N
1636409475.3,286046998.8,N
1636409495.1,286046996.6,N
1636409515.9,286047000.6,N
1636409535.7,286046998.7,N
1636409555.5,286046998.4,N
1636409575.4,286046998.4,N
1636409595.2,286046998.9,N
1636409615.0,286046999.3,N
1636409615.9,286046999.3,N
1636409635.8,286046998.7,N
1636409655.6,286046999.1,N
1636409675.5,286047000.7,N
1636409695.3,286046998.7,N
1636409715.1,286046999.6,N
1636409735.9,286046998.7,N
1636409755.7,286046997.2,N
1636409775.5,286046999.0,N
1636409795.4,286046999.1,N
1636409815.2,286046999.0,N
1636409835.1,286046997.8,N
1636409836.0,286046997.8,N
1636409855.8,286046997.0,N
1636409875.6,286046996.5,N
1636409895.5,286046999.3,N
1636409915.3,286046999.4,N
1636409935.1,286046996.5,N
1636409955.9,286046996.9,N
1636409975.7,286046998.0,N
1636409995.6,286046999.2,N
1636410015.4,286046998.3,N
1636410035.2,286046999.2,N
1636410055.1,286046997.1,N
1636410056.0,286046997.1,N
1636410075.8,286046998.9,N
1636410095.6,286046999.0,N
1636410115.5,286046996.9,Y
1636410135.3,286046998.7,P
1636410155.2,286046999.0,P
1636410175.9,286046998.2,P
1636410195.7,286046998.5,Y
1636410215.6,286047004.3,P
1636410235.4,286047003.8,N
1636410255.3,286047001.7,N
1636410275.1,286047002.7,N
1636410276.0,286047002.7,N
1636410295.8,286047001.5,N
1636410315.7,286047004.2,N
1636410335.5,286047004.2,N
1636410355.3,286047004.3,N
1636410375.2,286047001.3,N
1636410395.0,286047002.4,N
1636410395.9,286047002.4,N
1636410415.8,286047001.9,N
1636410435.6,286047001.6,N
1636410455.4,286047002.2,N
1636410475.3,286047002.1,N
1636410495.1,286047001.7,N
1636410515.8,286047003.7,N
1636410535.7,286047003.3,N
1636410555.5,286047003.4,N
1636410575.4,286047003.9,N
1636410595.2,286047005.3,Y
1636410615.0,286047001.4,P
1636410615.9,286047001.4,N
1636410635.8,286047001.3,N
1636410685.6,286047003.6,E
1636410695.6,286047002.0,N
1636410715.4,286047000.8,P
1636410735.2,286047000.6,N
1636410755.1,286047005.9,Y
1636410756.0,286047005.9,P
1636410775.8,286047003.7,N
1636410795.7,286047005.5,N
1636410815.5,286047006.0,Y
1636410835.3,286047000.2,P
1636410855.2,286047000.3,N
1636410875.9,286046998.2,N
1636410895.7,286046998.7,N
1636410915.6,286046997.0,N
1636410935.4,286046999.1,N
1636410955.2,286046995.3,N
1636410975.1,286046995.5,N
1636410976.0,286046995.5,N
1636410995.8,286046993.8,N
1636411015.7,286046993.6,N
1636411035.5,286046991.7,N
1636411055.3,286046992.2,N
1636411075.2,286046990.1,N
1636411095.0,286046991.2,N
1636411095.9,286046991.2,N
1636411115.8,286046991.4,N
1636411135.6,286046989.0,N
1636411155.4,286047017.2,Y
1636411175.3,286046994.9,P
1636411195.1,286046996.2,P
1636411215.8,286046994.9,P
1636411235.7,286046993.4,Y
1636411255.5,286046998.1,P
1636411275.4,286047001.8,N
1636411295.2,286047001.4,N
1636411315.0,286047000.1,N
1636411315.9,286047000.1,N
1636411335.8,286047001.0,N
1636411355.6,286047000.0,N
1636411375.5,286046999.9,N
1636411395.3,286047002.7,N
1636411415.1,286047002.2,N
1636411435.9,286047001.5,N
1636411455.7,286047002.9,N
1636411475.6,286047005.0,N
1636411495.4,286047005.3,N
1636411515.2,286047003.3,N
1636411535.1,286047005.2,N
1636411536.0,286047005.2,N
1636411555.8,286047004.5,N
1636411575.6,286047007.1,N
1636411595.5,286047006.5,N
1636411615.3,286047008.6,Y
1636411635.2,286047004.8,P
1636411655.9,286047007.6,P
1636411675.7,286047009.2,P
1636411695.6,286047007.7,N
1636411715.4,286047010.2,Y
1636411735.3,286047002.9,P
1636411755.1,286047005.1,N
1636411756.0,286047005.1,P
1636411775.8,286047005.4,Y
1636411795.7,286047000.2,P
1636411815.5,286047001.8,N
1636411835.3,286047002.3,N
1636411855.2,286047000.1,N
1636411875.0,286047000.7,N
1636411875.9,286047000.7,N
1636411895.8,286047000.0,N
1636411915.6,286047001.2,N
1636411935.4,286046996.8,N
1636411955.3,286046997.4,N
1636411975.1,286046997.0,N
1636411995.8,286046997.4,N
1636412015.7,286046997.6,N
1636412035.5,286046997.7,N
1636412055.3,286046997.8,N
1636412075.2,286046994.9,N
1636412095.0,286046998.0,N
1636412095.9,286046998.0,N
1636412115.8,286046997.3,N
1636412135.6,286046996.8,N
1636412155.4,286046997.5,N
1636412175.3,286046997.3,N
1636412195.1,286046997.1,N
1636412215.8,286046997.9,N
1636412235.7,286046996.8,N
1636412255.5,286046999.4,N
1636412275.4,286046996.7,N
1636412295.2,286046997.0,N
1636412315.0,286046996.7,N
1636412315.9,286046996.7,N
1636412335.8,286046997.3,N
1636412355.6,286046997.3,N
1636412375.4,286046997.5,N
1636412395.3,286046997.3,N
